Wind_Speed
12 11 10 9 8 7 6 5 4 3 2 2 2 3 4 5 6 6 7 8 8 9 9 10 10 11 12 13 14 14 14 15 16 18 19 20 19 19 18 17 17 17 17 16 16 16 15 15 15 15 15 16 16 17 17 17 18 19 19 19 19 19 20 20 21 23 23 24 24 24 24 27 29 28 27 26 28 29 30 31 32 33 34 35 35 36 36 37
13 12 11 10 9 7 6 5 4 3 3 3 3 3 4 5 6 6 7 7 8 8 9 9 10 11 12 12 12 13 14 15 17 18 19 18 18 17 17 16 15 15 15 15 15 15 15 15 15 15 15 16 17 17 18 19 19 20 20 20 20 21 20 20 22 23 23 24 24 24 24 27 29 29 29 29 30 31 32 33 34 35 36 37 38 38 39 40
14 13 11 10 9 8 7 5 5 4 4 3 3 3 4 5 5 5 6 6 7 7 8 9 10 11 11 11 12 13 15 16 17 17 17 17 16 15 14 14 13 14 14 14 14 15 15 16 16 16 17 18 18 19 19 20 20 21 21 21 21 21 20 21 23 23 24 25 25 25 25 28 30 31 32 33 34 34 36 37 37 38 39 39 40 41 42 42
15 13 11 10 9 8 7 7 6 5 4 2 1 2 3 3 3 3 4 5 6 7 8 9 9 10 11 12 13 14 15 16 16 15 14 13 12 12 12 12 13 13 14 14 15 16 16 17 18 18 19 19 20 20 20 20 21 22 22 22 22 23 22 23 25 25 26 26 27 27 28 30 32 33 34 35 35 36 38 38 39 40 40 41 41 42 43 43
14 12 11 10 9 9 9 8 7 5 3 2 1 1 1 1 1 2 3 5 7 8 9 9 9 10 11 13 13 14 14 14 12 12 11 11 11 11 12 13 13 14 15 16 16 17 18 19 19 20 20 21 21 21 21 21 22 23 23 24 25 25 25 26 27 28 28 29 30 30 31 32 34 35 36 36 36 37 38 39 39 40 41 41 42 43 43 44
14 13 12 11 11 10 10 8 7 5 4 4 3 2 1 1 1 1 4 6 7 8 8 9 9 10 12 12 12 12 11 10 10 10 10 10 11 12 13 14 15 16 17 18 19 20 20 20 20 21 21 21 21 22 23 23 24 25 26 27 27 27 28 30 30 31 32 32 33 33 33 34 35 36 37 37 38 38 38 39 40 40 41 41 42 43 44 44
15 14 14 13 12 11 10 9 8 7 6 5 4 3 3 3 2 3 5 6 7 8 8 9 10 11 11 10 10 9 9 9 9 9 10 11 12 14 15 16 17 18 19 20 20 21 21 21 21 22 22 22 23 24 24 25 26 27 28 28 29 30 31 32 32 33 34 34 34 34 35 36 37 37 37 38 39 39 39 39 40 40 41 42 42 43 44 45
17 16 15 14 13 12 11 10 9 8 7 6 5 5 5 4 4 5 6 7 8 8 9 10 10 9 9 8 8 9 10 10 10 11 12 13 15 16 18 18 19 19 20 20 20 21 21 22 22 23 23 24 25 25 26 27 28 28 29 30 30 31 32 33 34 34 34 35 35 35 35 36 37 37 37 38 39 39 40 40 41 41 42 43 43 44 45 46
18 17 16 15 13 12 12 11 10 9 8 7 6 6 6 6 6 6 6 7 8 9 9 9 9 8 8 9 10 10 11 11 12 14 15 16 17 17 19 19 19 19 20 20 20 21 22 23 23 24 25 25 26 27 27 29 29 30 31 31 32 33 33 33 34 34 34 35 36 35 35 35 36 37 38 39 40 41 41 41 41 42 43 44 45 46 47 48
18 17 15 15 14 13 12 11 11 10 9 8 7 6 6 6 6 6 7 8 8 8 8 8 9 9 9 11 12 12 12 13 14 16 17 17 17 17 18 18 19 19 20 21 21 22 23 24 25 26 27 27 28 29 29 30 30 31 31 32 32 33 33 33 34 34 35 35 36 36 35 35 37 38 39 40 41 41 42 43 43 43 44 45 46 47 48 49
17 16 15 15 14 14 13 12 11 10 9 8 8 7 7 6 7 8 9 9 8 9 9 10 10 10 11 13 14 13 13 15 15 16 16 16 16 17 17 18 19 20 21 22 23 24 25 26 27 27 28 29 29 30 29 30 30 31 31 31 32 33 33 33 34 35 35 35 36 36 36 36 38 38 39 41 42 43 43 44 45 45 46 47 47 48 49 50
17 16 16 15 14 14 13 12 12 10 9 9 9 8 8 8 8 9 9 10 10 10 10 10 11 12 13 14 13 13 14 15 15 15 16 17 17 18 18 19 21 22 22 24 25 25 26 27 28 29 29 29 30 30 30 30 30 30 30 31 31 32 33 33 34 35 36 36 37 38 37 37 39 39 39 42 44 45 45 46 47 47 48 49 49 49 50 51
17 17 16 15 14 14 13 12 11 11 10 10 9 9 9 9 9 10 11 12 12 12 12 12 13 13 13 13 14 14 14 14 15 16 16 17 19 20 21 21 22 23 24 25 26 26 27 28 28 29 29 29 30 30 30 29 29 30 31 31 31 32 33 34 35 36 37 38 38 40 39 37 39 40 40 43 45 46 47 48 48 49 49 50 50 50 51 51
18 17 16 15 14 14 13 12 11 11 11 10 10 10 10 11 12 13 13 13 13 13 13 13 13 13 12 13 14 14 14 15 15 16 17 19 20 22 23 24 25 25 26 27 27 27 28 28 28 29 29 29 29 30 30 29 29 30 31 31 31 32 34 35 36 36 37 39 39 41 41 38 39 42 42 44 46 47 48 49 49 50 51 52 52 52 53 53
17 16 15 15 14 13 13 12 12 11 11 11 11 11 13 13 14 14 13 13 13 14 14 14 14 13 12 13 13 14 14 15 17 18 20 21 22 24 25 26 26 26 27 27 28 28 28 29 29 29 29 30 30 30 30 30 30 30 31 32 33 33 33 35 36 37 37 38 39 42 43 41 41 43 43 45 47 48 49 50 51 51 52 54 54 55 55 55
17 16 15 15 14 13 13 12 12 12 12 12 13 14 15 15 14 14 14 13 14 14 14 15 14 12 12 12 12 14 16 18 20 21 22 23 24 25 26 26 27 27 28 28 28 29 29 30 31 31 31 31 31 31 32 33 33 33 33 33 33 33 32 33 35 37 38 39 39 41 45 44 43 44 45 47 48 49 50 51 52 54 54 55 56 56 57 58
17 16 15 14 14 13 13 13 13 13 15 15 16 16 16 15 15 14 14 14 14 15 15 14 12 12 13 13 14 17 20 21 22 22 24 25 25 26 26 26 26 27 28 28 29 29 30 30 31 31 31 31 32 33 34 34 34 33 33 33 33 34 35 35 36 39 40 41 40 40 44 45 45 46 47 48 50 50 52 52 52 54 55 56 58 58 59 60
16 16 15 15 14 14 15 15 16 17 17 17 17 17 16 15 14 14 16 15 14 15 14 12 12 13 15 17 18 20 21 22 22 23 24 24 25 25 26 26 26 27 28 28 29 29 30 30 30 30 31 31 32 33 33 34 34 34 34 34 35 37 38 39 40 41 42 41 41 41 43 45 46 48 48 49 51 51 51 51 51 53 56 58 59 61 63 65
17 16 16 16 16 17 18 18 19 19 18 17 17 17 16 15 14 15 15 13 13 15 14 13 15 16 17 19 20 20 20 22 22 23 23 24 25 25 26 27 27 27 28 28 29 30 30 30 30 30 31 31 32 32 33 34 35 36 36 37 37 38 39 39 40 42 43 41 41 43 45 46 48 48 48 49 50 50 50 52 54 56 58 59 60 63 66 68
17 17 18 18 19 20 21 21 21 20 18 17 16 17 16 15 15 14 13 13 15 15 14 16 17 17 17 19 20 19 20 21 22 23 24 25 25 25 26 26 27 27 28 28 29 29 30 31 31 31 31 32 32 33 34 35 35 36 37 38 38 39 38 39 41 42 44 43 42 45 46 47 49 49 48 48 49 50 53 56 58 59 60 60 62 64 67 69
19 20 21 22 23 23 22 22 21 20 19 17 17 17 16 15 14 14 14 15 15 14 15 16 17 17 18 20 21 22 23 23 24 24 24 25 25 25 26 26 27 27 28 28 28 29 30 31 32 32 32 32 33 34 34 36 36 37 38 38 39 40 38 39 41 43 44 45 44 45 46 47 50 50 49 49 50 53 56 58 58 59 61 63 65 67 68 70
23 24 25 25 24 24 23 22 21 20 19 19 19 19 17 16 14 14 14 14 13 15 16 16 17 18 19 21 22 23 24 24 25 24 25 25 25 25 26 27 27 27 28 28 29 30 30 31 31 31 32 32 33 34 35 36 37 37 38 39 40 41 40 38 39 42 45 47 46 45 45 47 50 51 51 51 52 55 57 57 58 60 62 65 68 69 69 71
27 27 26 25 24 24 23 22 21 21 21 20 20 19 17 15 14 14 14 14 15 16 17 17 19 20 20 22 23 23 24 24 24 24 24 24 24 25 26 26 27 27 28 29 29 30 30 31 31 31 32 32 32 33 34 35 37 38 39 40 40 41 43 42 41 42 44 48 48 47 45 45 49 52 52 53 54 56 56 57 60 63 65 68 69 70 71 73
28 27 26 25 24 23 23 22 22 22 21 20 19 17 16 15 14 15 16 16 17 17 17 18 20 21 21 22 22 23 23 23 23 23 23 23 24 24 25 26 26 27 28 28 28 29 30 31 31 31 32 32 33 33 33 34 36 38 39 40 41 42 43 45 45 45 44 46 49 51 49 46 49 54 54 54 56 57 58 60 63 66 68 69 71 72 74 77
28 27 26 25 24 24 24 24 23 22 21 19 17 16 15 15 15 16 17 17 17 17 17 19 20 22 22 21 22 22 22 22 22 22 22 23 24 24 25 26 27 28 28 28 29 30 32 33 32 33 33 34 36 36 36 37 37 38 40 42 43 44 44 45 47 49 49 48 50 55 56 52 52 55 55 56 58 59 61 64 66 68 70 71 72 74 77 81
28 26 25 25 25 26 26 25 23 22 20 18 17 17 16 16 16 16 16 16 17 17 18 19 21 22 22 21 21 21 22 22 22 23 23 24 24 26 27 27 28 30 30 31 32 33 35 34 34 35 36 37 39 38 39 40 40 42 44 46 46 47 47 48 50 52 53 53 53 56 58 57 55 54 56 59 61 62 64 67 68 70 72 73 74 76 80 84
27 26 26 27 28 27 26 24 22 21 19 19 18 17 17 17 16 16 15 15 18 19 19 20 21 21 21 20 20 21 22 23 24 24 25 25 26 28 29 30 31 32 33 34 35 36 36 36 37 39 39 41 42 42 43 44 45 47 48 50 50 49 50 51 52 53 54 54 54 55 58 59 57 55 57 60 62 64 66 67 69 72 73 74 76 80 83 85
27 27 28 29 28 26 24 23 21 20 19 18 18 17 16 16 16 16 16 17 19 20 19 20 20 20 20 20 21 22 23 24 25 24 26 27 29 30 31 32 34 35 36 36 36 37 38 39 41 42 42 44 45 46 48 47 49 50 50 52 51 51 52 52 52 53 54 54 54 55 58 59 58 56 59 62 63 66 67 68 70 72 73 76 79 83 85 86
28 29 29 28 26 25 23 22 20 19 18 17 17 16 16 16 17 17 17 19 20 20 20 20 20 20 20 22 23 24 25 25 26 27 29 30 30 32 34 35 37 37 37 38 38 40 42 42 44 44 45 46 47 49 50 50 50 50 51 51 51 52 53 53 54 54 54 55 56 57 58 61 61 58 60 63 65 67 68 70 71 72 74 78 82 85 86 86
30 30 28 26 25 23 22 20 19 18 17 17 17 16 16 17 17 17 19 19 19 19 20 20 20 21 22 23 24 26 26 27 29 31 32 33 33 35 37 37 38 38 39 40 42 42 44 44 45 46 47 48 49 50 51 51 51 51 52 52 51 52 54 55 56 55 55 56 57 58 59 61 62 60 60 62 64 66 69 69 71 73 76 79 83 85 86 86
30 28 26 25 23 22 20 19 18 17 17 17 17 16 16 17 18 18 19 19 18 19 20 20 21 21 23 24 24 26 26 28 30 30 32 34 34 36 38 38 39 41 41 43 44 44 45 46 47 48 50 51 51 51 51 51 52 52 54 55 56 56 56 57 56 55 55 56 57 58 60 61 61 62 62 62 64 66 68 70 73 76 78 81 83 84 85 86
28 27 25 23 21 20 18 18 17 17 16 16 17 16 16 17 18 19 19 19 19 20 20 20 22 22 23 24 25 27 28 30 32 32 34 37 37 39 40 41 43 44 45 46 47 46 46 48 49 51 52 53 53 53 52 52 54 55 56 57 60 60 60 59 58 57 57 57 57 59 61 61 60 62 63 63 65 67 68 72 75 78 80 82 83 84 84 83
26 25 23 21 19 18 17 17 16 16 16 16 16 16 16 18 19 19 19 19 19 20 20 21 22 23 24 25 26 28 29 32 35 36 38 40 41 42 44 45 46 47 48 49 50 49 49 50 51 52 53 54 55 56 55 55 56 58 58 59 61 62 63 63 63 62 62 61 60 60 61 62 62 62 63 64 66 68 72 75 77 79 81 82 82 82 82 81
24 22 21 19 18 17 17 16 16 15 16 16 15 15 17 19 19 19 19 19 19 20 21 22 23 24 25 27 29 31 32 34 37 38 40 41 42 43 44 45 47 48 50 51 51 52 52 52 53 54 55 56 56 57 58 57 58 59 59 60 61 61 63 64 64 65 66 67 64 62 62 64 63 63 64 65 66 70 74 77 78 80 82 82 81 81 81 82
22 20 18 17 16 16 16 16 15 15 16 15 13 16 19 19 18 18 19 20 20 21 22 23 25 26 28 30 32 34 36 37 39 39 40 42 42 43 45 45 47 49 50 51 52 53 53 52 54 55 56 57 57 58 58 57 58 59 60 60 60 60 62 63 64 65 67 69 67 64 64 64 63 63 64 66 68 71 75 77 79 81 82 82 83 82 83 83
19 17 16 15 14 14 15 16 16 16 15 13 14 18 19 18 19 19 19 20 21 22 23 24 26 28 29 32 34 36 38 39 40 40 40 42 42 44 45 46 47 49 50 52 53 54 54 52 53 55 55 56 57 58 58 58 58 59 60 59 59 61 62 63 65 64 65 69 68 66 66 66 65 64 65 67 70 74 77 80 81 82 82 83 83 83 83 83
16 15 14 12 13 13 14 15 17 15 12 12 16 19 18 18 18 18 19 21 22 24 25 26 28 29 31 33 35 37 38 39 40 41 41 42 42 44 45 46 48 50 51 53 54 56 57 55 54 55 55 55 57 57 57 59 59 59 60 60 60 61 62 64 65 65 66 70 70 69 69 70 69 68 68 71 74 77 80 82 82 83 84 85 83 82 82 81
14 13 11 11 12 12 14 16 16 13 10 14 18 18 18 18 18 18 20 22 23 25 26 28 30 32 34 35 36 37 38 39 40 41 42 43 44 45 46 48 50 52 53 56 56 57 59 58 56 56 56 56 57 57 58 60 59 59 60 61 62 62 62 63 64 64 67 72 73 71 72 73 71 69 72 75 78 81 83 83 84 85 85 85 83 81 80 79
12 11 11 11 11 12 15 16 12 9 12 17 18 17 17 18 18 19 21 23 25 26 28 29 31 33 35 35 36 37 38 39 41 42 43 44 45 46 48 50 52 54 55 57 58 58 60 61 59 58 58 57 57 58 60 60 59 60 61 62 62 63 62 62 62 63 67 73 75 75 76 75 71 71 75 78 81 83 84 85 85 86 85 84 82 80 79 77
9 11 12 11 12 15 14 10 8 11 17 18 16 16 18 18 18 19 22 24 26 27 29 31 33 34 35 36 37 38 39 40 42 43 44 46 47 48 50 52 54 56 57 58 60 60 60 62 62 60 59 59 59 60 60 61 61 61 62 63 63 63 62 62 63 63 66 71 74 77 80 76 71 73 77 79 82 83 84 85 86 85 84 82 80 78 77 75
10 14 14 13 14 13 8 7 11 16 17 16 16 17 17 17 18 19 22 24 26 29 31 32 34 35 36 36 37 39 40 41 43 44 45 47 49 50 52 54 55 57 58 59 60 62 62 63 64 64 62 61 60 60 62 64 64 63 64 64 64 63 63 64 66 65 66 70 73 77 81 78 73 75 78 79 83 83 83 85 85 84 83 81 78 75 74 72
14 16 14 13 12 8 7 12 16 15 15 16 16 17 17 18 18 19 23 25 27 29 31 33 34 35 37 37 38 40 41 42 43 45 47 48 50 52 53 55 56 57 59 60 61 63 63 64 65 65 65 64 62 62 65 66 65 63 63 63 63 63 64 65 67 68 69 70 72 76 79 77 75 76 78 81 84 83 83 84 84 83 82 80 76 73 71 69
16 15 13 12 11 10 13 17 15 14 15 16 16 17 18 18 19 20 23 25 28 29 31 33 34 35 37 38 39 40 41 42 44 46 48 49 51 53 54 56 57 59 60 61 62 64 64 65 65 65 65 64 62 62 64 64 63 61 61 62 63 63 63 64 66 69 71 71 73 77 79 77 75 77 80 83 84 83 83 83 83 82 81 78 75 71 69 66
15 13 12 11 11 14 17 16 14 14 15 15 16 17 18 18 19 21 23 26 28 30 32 33 34 35 37 37 39 40 42 43 45 47 49 51 52 54 55 57 59 60 61 63 64 65 65 66 66 66 68 68 66 64 65 65 63 61 60 61 63 63 64 66 67 70 72 73 73 77 80 79 77 79 82 84 85 85 84 82 81 81 80 78 74 70 67 64
13 12 12 12 13 16 17 15 14 14 14 15 16 17 18 19 20 22 24 26 29 31 32 34 35 36 37 37 38 40 42 44 47 48 50 52 54 55 57 59 60 62 63 64 65 66 66 67 67 66 67 70 69 67 67 68 66 63 62 62 63 64 66 68 69 69 72 75 75 76 80 82 80 80 84 86 86 86 84 83 81 79 78 77 73 69 65 62
13 12 12 13 14 15 15 14 13 14 14 15 16 17 18 19 19 22 25 27 30 32 33 35 35 36 37 38 40 41 43 46 48 50 52 54 55 57 58 60 62 64 65 65 66 67 68 68 68 66 64 65 67 65 65 66 66 66 65 64 64 66 69 70 69 69 73 77 78 76 79 83 83 83 87 88 87 87 85 83 81 78 77 76 72 67 63 60
12 12 12 13 13 14 14 13 13 13 14 15 16 17 18 19 20 22 25 28 31 33 34 35 35 36 37 39 41 43 46 48 50 52 53 55 57 58 60 61 63 65 66 67 67 68 69 69 70 67 63 64 66 64 64 65 65 66 67 66 67 69 71 70 69 71 74 78 79 77 78 83 85 85 88 88 88 87 85 82 80 78 77 75 71 66 62 57
11 11 11 12 13 14 14 13 13 13 14 15 17 18 18 19 20 22 25 28 31 33 35 35 36 36 38 41 43 45 48 49 51 53 54 56 58 59 61 62 64 66 67 68 68 69 70 70 72 70 65 65 66 65 65 66 65 65 67 68 70 71 71 71 72 73 74 76 80 80 80 83 85 87 89 88 87 86 83 80 78 77 76 74 70 65 61 57
10 10 10 11 13 14 13 13 13 14 15 16 17 18 19 19 20 22 25 28 31 34 35 36 37 38 40 42 45 47 49 50 52 54 56 57 59 60 62 63 65 66 68 69 70 71 71 71 73 73 68 66 68 67 66 67 67 66 68 70 72 72 72 72 73 73 74 76 78 80 82 83 85 87 89 88 86 84 81 78 76 75 74 72 69 64 60 57
9 10 11 12 13 14 13 13 13 15 16 17 18 19 19 19 21 22 25 28 31 34 35 36 38 39 41 44 46 48 50 51 53 55 57 58 60 61 63 64 65 67 69 70 71 72 72 72 74 75 72 69 71 70 67 68 69 69 71 72 71 71 72 73 73 73 76 78 80 81 84 85 86 88 90 88 85 83 80 78 75 74 73 71 68 64 60 57
9 9 11 12 13 13 13 13 14 16 17 18 18 19 20 20 21 23 26 29 32 34 36 37 38 40 42 45 47 49 50 52 54 56 58 60 61 62 63 65 66 68 70 71 72 73 73 73 74 76 75 73 73 72 70 71 72 72 73 73 72 73 75 76 76 75 76 81 83 84 87 88 89 91 91 88 86 83 81 78 76 74 73 71 68 65 61 58
9 9 11 12 13 13 13 13 15 16 17 18 19 20 20 21 22 24 26 29 32 34 36 38 39 41 43 45 47 49 51 52 54 56 58 60 62 63 64 66 67 69 71 72 73 74 74 75 75 77 77 75 75 74 73 74 76 76 76 75 75 76 77 79 78 76 76 80 84 86 88 90 91 91 91 90 88 85 81 78 76 75 73 71 68 65 62 58
Wind_Direction
205 202 202 202 201 197 189 178 170 167 169 190 228 261 281 295 302 305 306 306 310 314 318 322 327 333 336 336 336 335 334 332 330 328 327 326 326 327 328 328 329 329 330 330 331 331 332 334 332 330 327 323 319 316 315 314 311 309 307 307 307 303 303 305 301 298 299 299 299 301 300 296 296 296 296 295 293 293 292 290 290 291 292 292 292 291 291 290
202 200 202 204 206 203 196 190 183 178 187 211 239 266 287 298 304 307 309 311 314 320 324 329 334 337 338 337 336 335 333 331 330 328 328 329 329 329 331 331 332 333 335 334 335 334 332 332 330 328 324 319 317 315 313 311 310 308 307 308 306 304 306 303 299 300 301 300 301 304 302 298 298 298 298 296 295 295 293 292 292 292 293 293 293 292 292 291
198 196 197 199 200 197 196 196 190 188 200 220 247 275 294 303 309 315 316 320 325 330 336 339 342 342 341 340 338 335 333 332 331 331 332 332 333 334 336 337 339 340 340 337 335 332 331 330 328 325 321 318 317 316 314 312 311 310 310 310 309 309 308 304 303 304 303 302 303 304 301 297 297 298 298 297 296 296 295 294 294 294 294 294 293 292 292 291
193 190 190 192 192 192 193 190 186 189 197 213 253 299 312 320 327 330 331 338 345 351 355 356 353 348 344 339 336 335 334 334 335 336 338 339 340 342 343 344 345 343 340 337 334 333 332 330 328 326 324 322 320 319 319 318 317 316 316 315 313 313 310 307 307 305 303 302 302 302 300 298 297 297 297 297 296 295 295 295 295 294 294 293 292 291 291 290
186 183 182 182 184 184 182 179 178 177 171 144 83 22 342 343 356 348 353 2 5 7 6 1 353 345 341 338 338 338 337 338 341 344 346 347 349 349 348 347 346 344 341 339 337 336 334 333 331 330 328 326 325 324 323 323 322 320 319 317 315 313 311 309 307 305 303 301 301 299 298 297 297 297 297 296 294 293 293 293 293 292 292 291 291 291 290 290
177 173 171 171 172 170 168 164 158 148 130 111 90 48 22 134 92 25 13 15 15 10 2 353 347 345 345 344 344 343 343 347 354 355 354 354 353 352 351 350 348 345 342 341 340 339 338 336 334 331 329 328 326 324 323 323 321 319 318 316 313 311 309 308 306 304 302 300 299 298 296 296 296 296 296 295 293 291 291 291 291 290 290 290 289 289 289 289
164 161 159 159 160 157 154 147 139 128 118 114 99 69 87 117 89 43 28 22 14 6 358 353 353 353 353 353 354 358 2 6 5 360 357 356 356 354 352 350 349 346 344 343 343 341 339 336 332 330 327 324 323 321 320 319 316 315 313 312 309 307 305 304 302 301 300 298 297 297 296 295 295 294 295 294 293 291 291 290 290 290 289 289 288 288 288 287
153 151 151 151 151 147 142 134 127 121 118 116 104 92 93 90 64 45 31 20 11 5 1 1 1 3 7 11 18 23 18 11 6 1 359 357 356 354 351 350 350 348 346 345 342 339 335 331 328 326 323 322 321 319 317 314 313 312 311 309 307 304 303 302 301 300 299 298 297 296 295 295 295 294 294 294 293 292 292 291 292 292 292 291 291 291 290 290
147 146 146 146 143 139 133 126 122 120 118 112 101 93 82 69 54 40 26 19 14 11 10 12 18 24 30 32 32 27 15 7 4 1 359 357 356 354 354 352 350 347 344 341 336 332 331 328 325 324 323 322 321 318 316 315 314 312 311 309 307 304 303 303 302 300 299 297 296 295 294 295 295 295 294 294 294 294 294 294 294 294 294 294 293 293 293 292
144 143 142 140 137 131 126 122 120 118 113 106 95 85 75 65 52 40 32 27 24 27 31 37 43 45 43 38 31 21 10 6 5 4 2 360 357 356 355 352 346 341 338 336 332 329 329 328 326 325 323 322 320 318 317 315 313 312 310 309 307 305 304 303 301 300 299 298 297 296 296 297 297 297 296 296 295 296 296 296 295 295 295 295 295 295 294 294
141 140 138 135 131 127 122 119 115 111 106 98 91 84 74 63 53 47 44 43 47 52 55 55 52 47 41 36 27 17 11 11 10 8 6 2 358 354 350 346 343 339 335 333 332 329 328 328 326 324 322 321 320 318 317 315 313 312 311 310 309 307 306 306 304 303 302 301 301 300 300 301 300 300 300 299 298 298 298 297 297 297 297 297 297 297 297 296
138 136 134 131 128 123 118 114 109 105 99 92 86 78 68 60 57 59 63 67 67 64 61 56 48 43 39 33 26 20 18 18 14 10 5 1 357 351 345 341 339 338 335 332 330 329 327 326 325 324 322 321 320 318 316 316 315 314 313 312 312 312 310 309 307 306 305 305 305 304 305 306 304 303 302 301 300 299 298 297 298 299 299 298 297 297 297 296
135 133 130 127 122 116 112 107 103 98 92 85 78 71 68 69 75 80 80 76 71 65 59 51 44 41 39 35 30 25 19 15 11 6 1 357 353 350 346 341 337 335 334 331 330 329 328 326 325 324 322 320 319 317 317 318 317 316 315 315 315 314 312 311 310 309 309 308 308 305 305 306 305 304 302 300 299 298 298 298 299 299 298 298 297 297 296 295
133 130 125 120 114 110 106 102 97 91 86 81 77 79 85 89 90 88 83 76 70 63 55 49 45 43 43 40 31 23 16 10 5 359 356 353 349 348 346 342 338 335 333 332 332 330 327 326 324 323 321 320 319 318 319 319 319 318 318 316 316 316 315 314 312 310 309 308 308 305 305 307 304 302 301 299 298 298 299 299 300 300 299 299 297 296 294 293
129 125 119 114 110 108 104 100 93 89 87 88 91 96 98 96 91 86 81 74 67 61 57 54 50 45 41 36 22 12 8 4 359 356 353 350 347 346 343 340 337 335 334 332 330 329 327 326 325 323 322 321 320 320 320 319 320 321 319 319 319 318 316 313 310 308 307 307 308 306 305 306 302 300 300 300 300 301 301 301 302 301 300 299 298 297 296 294
125 119 115 113 111 107 102 97 93 94 98 102 104 102 98 93 87 82 77 71 67 64 62 56 48 41 35 27 10 2 3 359 356 353 349 348 347 344 340 338 336 334 332 331 329 329 328 327 325 324 323 322 321 320 321 322 323 322 321 321 319 316 313 310 309 308 308 309 309 305 304 305 303 301 302 302 303 303 303 304 304 302 301 300 299 298 297 295
120 117 115 114 109 104 100 99 101 105 108 108 105 99 93 87 81 78 75 71 70 68 63 53 43 36 28 18 4 2 2 357 353 349 348 347 344 341 338 336 335 333 332 331 330 329 327 325 324 324 323 322 322 323 324 325 325 322 320 319 317 316 316 315 313 311 312 311 309 306 305 306 305 304 304 304 305 306 306 305 304 302 301 301 301 300 298 297
119 117 115 111 107 105 106 108 110 111 110 107 101 96 90 83 76 76 76 73 71 68 61 50 37 28 20 12 5 2 358 353 351 349 347 344 340 339 336 335 334 333 332 330 328 325 324 323 322 322 322 323 325 326 326 324 322 320 319 318 318 318 318 319 316 312 310 309 307 307 305 306 306 306 306 307 308 307 306 304 303 302 302 304 305 305 305 304
118 116 113 110 110 111 111 112 112 110 108 103 97 92 85 79 77 78 79 75 67 60 49 36 27 18 12 9 4 359 355 352 350 348 345 342 340 339 336 335 334 332 331 329 327 326 324 324 323 324 324 324 325 324 322 320 319 319 319 319 318 317 317 316 313 310 308 308 308 308 308 308 308 308 308 308 308 308 308 306 305 306 308 310 311 311 310 310
116 115 114 115 115 114 113 111 110 107 104 100 94 88 81 79 82 82 79 68 57 48 36 28 20 13 10 7 3 360 356 353 350 349 346 343 341 339 337 336 333 333 332 330 329 328 326 326 327 327 326 324 323 322 321 320 319 319 319 319 317 317 317 316 313 312 312 313 314 313 313 313 311 311 311 309 309 310 310 310 311 313 314 314 313 313 312 311
118 118 118 117 115 113 112 109 106 103 98 94 90 87 86 87 85 77 68 58 48 38 29 23 15 13 12 6 3 0 357 356 353 350 347 344 342 340 338 337 336 336 335 332 332 331 330 330 329 328 327 326 325 324 324 323 321 320 319 319 318 317 320 320 317 317 317 317 319 317 317 317 313 313 312 311 312 312 312 314 315 316 315 314 313 313 313 312
120 119 117 116 114 112 109 104 100 96 92 91 91 90 90 87 78 66 58 50 41 32 25 19 13 14 12 6 4 360 357 356 352 349 348 346 343 341 341 340 339 339 338 337 336 335 334 332 331 330 330 329 328 327 325 324 322 321 321 321 321 319 321 325 322 321 320 319 319 318 319 318 315 315 315 315 315 314 315 316 316 316 315 315 315 315 314 312
119 117 116 114 112 109 104 99 95 93 93 94 93 90 86 79 68 59 50 40 35 28 21 17 13 12 10 5 3 360 357 355 350 349 348 346 345 344 342 342 342 342 342 341 339 337 336 335 334 334 334 332 330 328 326 325 323 323 324 323 323 322 323 327 327 327 324 320 319 318 319 320 318 318 319 319 319 318 318 317 316 316 316 316 316 315 314 312
117 116 115 112 109 105 100 97 95 96 96 94 90 85 78 70 60 51 43 35 31 25 18 16 12 9 8 3 1 360 356 353 351 351 348 347 347 346 345 344 345 346 345 342 340 340 339 339 339 338 336 334 332 332 331 330 327 325 326 325 326 328 327 327 327 328 327 323 320 319 321 324 322 321 324 324 322 320 318 318 317 317 317 318 317 315 314 313
116 114 110 107 104 103 101 100 99 98 95 90 83 76 67 59 50 42 36 29 26 21 15 13 10 7 6 2 0 358 354 354 354 351 350 350 349 348 349 348 348 348 348 346 344 344 344 343 341 339 338 336 335 336 335 334 331 328 329 329 330 331 330 329 328 329 329 327 325 323 324 326 324 324 326 324 321 319 318 319 319 319 318 318 316 314 313 312
112 109 106 105 104 104 102 101 99 95 89 81 72 64 57 49 43 36 30 24 22 21 14 10 8 6 5 1 359 356 354 356 355 353 353 353 352 352 352 351 351 350 350 349 347 347 347 344 342 342 341 339 337 336 336 336 335 334 334 334 333 332 332 332 332 330 330 330 329 326 324 324 326 326 324 320 319 319 319 320 319 318 317 316 314 313 312 311
109 108 107 106 105 104 102 99 95 87 79 70 62 56 51 45 39 34 28 23 21 19 14 9 8 6 3 360 358 356 356 358 357 356 356 354 354 355 354 354 353 352 352 351 349 347 347 345 344 345 343 341 339 337 337 338 338 337 336 335 334 333 333 333 332 330 330 331 329 326 324 324 325 325 320 318 318 319 319 319 317 316 315 314 314 313 313 313
110 109 108 107 105 103 100 94 86 77 69 62 56 53 49 43 37 31 26 24 21 16 12 11 8 5 1 359 359 359 360 0 358 358 358 357 357 356 356 355 354 354 353 351 349 348 348 347 347 346 344 342 340 338 339 339 339 338 336 335 334 333 333 331 330 330 330 330 328 325 324 322 322 322 320 319 320 320 319 317 317 316 315 315 315 315 315 315
111 110 109 107 105 100 94 86 77 69 64 58 54 51 46 41 35 28 25 24 19 14 12 10 6 2 1 1 1 2 2 1 0 1 2 1 359 358 358 357 356 355 354 352 351 350 350 349 348 347 345 343 342 340 340 339 339 336 335 334 334 333 331 330 330 331 330 329 328 326 324 322 322 322 322 321 322 321 319 318 317 317 316 317 318 317 316 315
112 111 109 106 100 94 86 78 71 65 60 56 52 47 42 38 33 26 24 23 18 15 12 9 6 3 2 3 2 3 3 3 3 3 3 2 0 0 360 358 357 357 356 355 353 352 352 350 349 348 346 345 344 342 340 339 337 335 334 334 333 332 331 331 330 331 331 330 328 326 323 322 323 323 322 322 321 319 318 318 317 317 318 318 318 317 316 314
113 110 106 100 93 87 79 72 66 61 57 55 50 44 39 36 30 25 24 22 18 16 11 7 6 5 4 5 6 7 6 6 7 4 3 3 2 2 1 358 358 358 357 357 355 354 353 352 350 348 347 346 345 344 341 338 336 335 335 333 332 333 332 331 330 329 330 330 327 325 323 323 324 324 324 323 320 318 318 318 318 319 320 319 318 317 316 314
110 105 100 94 88 81 73 67 62 57 55 52 47 41 37 34 29 25 24 22 18 15 10 7 7 7 9 9 9 10 8 7 8 6 4 4 2 1 360 358 357 357 357 357 357 356 354 352 350 348 348 346 345 345 342 338 337 337 336 333 333 334 333 332 331 330 331 331 329 326 324 324 325 325 324 323 321 320 320 320 321 321 321 321 319 318 316 314
106 101 97 91 84 76 68 62 57 54 53 49 44 39 36 32 28 25 23 20 17 13 10 10 10 11 13 12 11 12 10 7 7 6 4 3 2 1 360 359 358 357 358 358 357 356 354 351 349 348 348 346 345 344 342 340 339 338 337 336 335 334 334 333 332 331 332 332 331 329 326 325 326 326 325 324 323 322 322 323 323 323 322 322 320 317 315 311
104 100 94 87 79 71 65 58 53 51 50 45 41 39 35 31 27 25 22 18 15 13 12 13 13 14 15 13 12 11 10 8 7 6 4 3 2 1 360 359 358 357 357 356 355 354 353 350 349 349 348 346 345 344 343 341 340 339 339 338 336 334 333 333 332 331 331 331 332 331 328 327 328 329 327 325 325 325 324 324 324 324 323 321 319 316 313 310
102 96 89 81 74 66 60 57 53 49 46 41 39 38 34 28 24 23 21 17 15 15 15 15 15 15 14 13 12 10 8 7 6 6 4 2 0 358 358 358 357 356 355 354 352 352 353 352 350 349 348 346 345 344 343 341 339 340 340 338 336 334 333 332 332 332 330 329 330 330 328 327 329 329 327 325 326 326 324 324 324 324 322 320 318 316 314 313
99 93 84 75 68 61 57 59 53 44 42 38 38 38 31 24 23 21 19 18 17 18 18 17 17 15 14 13 11 9 7 6 5 4 3 1 359 357 357 356 355 354 352 352 352 352 353 354 351 349 348 346 345 344 342 341 341 340 339 337 336 334 333 332 332 331 329 327 328 329 328 328 330 330 327 327 327 326 325 325 325 324 322 321 320 318 317 317
97 88 79 69 62 58 59 59 48 38 37 38 38 35 26 22 22 19 18 19 19 20 19 19 17 15 14 12 11 9 7 6 5 3 2 0 359 357 356 355 354 353 352 352 353 352 353 355 352 349 349 347 345 344 341 341 342 340 338 337 336 335 334 333 331 330 330 327 328 329 329 331 334 332 330 330 328 327 328 328 326 324 323 322 321 321 320 320
93 84 73 63 58 60 61 54 40 30 36 40 36 28 21 20 20 19 20 20 21 21 19 19 17 15 14 12 11 10 8 6 5 3 1 360 359 357 356 355 354 354 354 353 354 353 353 355 354 350 349 348 346 344 342 342 342 339 338 338 336 335 335 333 331 331 330 328 327 330 332 334 337 334 332 332 330 329 330 329 326 325 324 324 323 323 322 322
89 80 70 65 64 64 57 44 30 29 41 40 31 22 20 19 19 21 22 21 22 21 20 19 17 15 14 12 10 10 8 6 4 3 2 0 360 358 357 356 356 355 355 354 354 354 353 354 354 352 350 348 346 345 343 343 342 341 339 339 337 336 335 334 333 332 330 328 329 331 333 337 338 334 333 333 331 331 331 328 327 326 325 325 325 325 324 323
87 78 73 73 68 58 47 35 33 42 41 34 24 19 19 19 21 24 24 22 22 21 20 18 16 14 13 11 10 9 7 6 4 3 3 1 0 359 358 358 357 356 356 355 354 354 354 354 354 353 351 349 348 346 342 342 344 343 341 340 339 337 334 333 333 333 331 331 332 331 333 338 338 334 334 333 330 331 331 328 327 326 326 326 326 326 325 325
86 75 70 66 58 49 38 41 46 41 35 28 21 18 19 21 24 25 24 23 22 21 18 17 15 13 12 11 10 9 7 6 5 4 3 2 1 0 359 359 358 357 356 355 354 354 354 354 353 353 352 351 350 347 344 344 345 344 341 341 340 337 335 333 333 334 334 335 335 331 331 338 338 335 334 331 329 331 331 329 328 327 327 327 327 327 326 324
83 73 66 61 55 51 55 52 44 35 30 26 20 18 20 23 25 25 24 22 21 20 17 16 15 13 11 10 9 8 8 6 5 5 4 3 2 1 360 358 358 357 356 355 354 353 353 353 353 353 352 352 352 349 346 346 345 343 341 340 340 339 337 333 333 335 336 336 334 331 332 337 338 335 333 330 330 331 331 329 329 328 327 328 329 328 326 324
80 75 70 64 55 52 55 48 37 31 30 25 19 20 23 25 26 25 23 21 20 18 17 15 14 12 11 10 9 8 8 7 6 5 4 3 2 0 359 358 358 357 356 355 355 354 353 353 353 352 351 352 352 350 348 347 345 343 342 340 341 340 337 334 336 338 336 335 335 332 333 337 337 334 331 330 331 332 331 331 330 329 328 329 330 329 326 326
81 76 70 61 49 46 47 40 30 29 28 22 21 23 24 25 26 25 22 21 19 18 16 15 13 12 12 11 10 8 7 7 7 5 4 3 1 0 359 358 357 357 357 356 355 354 353 353 353 352 350 350 352 352 349 349 348 346 343 342 342 340 337 336 339 339 336 334 335 334 333 336 337 334 332 331 332 332 333 332 331 330 330 330 330 329 328 327
82 73 63 53 44 41 40 33 27 28 25 21 23 24 25 26 25 24 22 20 19 17 16 14 13 13 12 11 11 10 8 7 6 5 4 2 1 0 359 358 357 357 357 356 355 355 354 354 353 353 351 349 351 352 348 348 349 348 346 344 342 341 339 339 341 339 336 334 336 336 333 335 337 335 332 332 333 333 334 334 333 332 330 329 330 330 329 328
76 66 56 47 41 38 35 30 28 27 24 22 24 26 27 26 25 23 21 19 18 17 15 14 13 13 12 11 11 10 9 7 5 4 3 2 1 0 359 358 357 357 356 356 356 355 355 354 354 355 353 349 350 351 347 346 347 347 347 346 343 342 342 341 340 340 337 335 336 338 335 335 338 336 333 334 335 335 336 336 335 333 329 329 331 332 330 329
68 60 51 43 38 35 32 30 28 26 23 22 24 27 27 26 25 24 21 19 18 16 15 14 13 13 12 12 11 10 9 6 4 3 3 1 1 360 359 358 357 357 356 356 356 355 355 355 354 356 355 350 350 351 348 346 346 346 347 346 345 344 343 340 340 341 339 335 336 339 337 336 338 336 334 335 335 336 338 337 335 332 330 331 332 332 330 330
61 54 49 40 35 33 31 30 28 23 22 22 23 26 26 26 25 23 21 19 17 15 14 13 13 13 13 12 12 10 8 6 3 2 1 1 360 359 358 357 357 356 356 356 356 355 355 355 354 356 356 352 351 352 349 347 347 347 347 347 346 345 343 341 342 342 339 336 336 338 339 338 338 336 335 336 337 338 338 337 335 332 331 331 332 333 332 332
56 49 45 37 33 31 29 29 25 21 21 21 23 25 26 25 24 21 19 17 15 14 13 12 13 13 13 12 11 9 7 5 3 1 0 360 359 358 358 357 356 356 356 356 356 355 355 355 354 355 356 354 352 352 351 348 348 349 348 348 347 346 343 342 343 342 338 337 337 338 339 340 338 337 337 338 338 338 338 337 335 333 332 332 333 334 334 334
53 45 40 35 31 29 28 27 23 21 20 20 21 23 24 24 23 20 17 15 14 13 12 12 13 12 13 12 10 8 6 3 2 360 359 359 358 358 357 357 356 356 355 355 355 355 355 355 354 354 355 354 352 353 352 349 349 350 349 349 348 346 344 343 344 344 340 338 339 339 339 340 339 338 339 339 339 338 338 337 335 334 334 334 335 336 336 335
50 41 36 33 30 28 27 25 21 19 19 19 21 22 22 22 20 17 15 13 12 12 12 13 13 13 12 11 9 7 4 2 1 359 358 358 358 357 357 357 356 356 355 354 355 355 355 355 354 353 354 354 353 353 352 351 351 351 350 350 348 347 346 344 346 347 342 338 340 340 340 340 340 340 340 340 339 339 339 339 337 336 336 336 337 338 337 336
48 38 33 30 29 27 26 24 20 18 18 18 19 20 21 20 18 16 14 12 11 11 12 13 13 13 12 10 8 6 3 2 0 359 358 357 357 357 356 356 355 355 354 354 354 355 354 354 354 353 353 354 354 353 352 351 351 352 352 351 349 349 348 347 347 347 343 339 340 341 341 341 341 341 341 341 341 341 341 341 339 338 338 337 338 338 337 336
Height
5782 5784 5786 5787 5789 5791 5792 5794 5795 5795 5796 5797 5797 5798 5799 5800 5801 5801 5801 5802 5802 5802 5801 5801 5801 5800 5800 5800 5799 5799 5798 5798 5797 5796 5796 5795 5794 5792 5791 5790 5789 5788 5787 5786 5785 5784 5783 5782 5781 5780 5779 5777 5777 5775 5774 5772 5771 5770 5769 5767 5766 5765 5763 5762 5760 5758 5757 5756 5755 5754 5752 5748 5747 5747 5747 5746 5744 5741 5740 5738 5737 5735 5733 5732 5731 5729 5728 5727
5782 5784 5786 5787 5789 5791 5792 5794 5794 5795 5796 5796 5797 5798 5799 5800 5800 5801 5801 5801 5801 5801 5801 5800 5800 5800 5800 5799 5799 5798 5798 5797 5796 5796 5795 5794 5793 5791 5790 5789 5788 5787 5786 5785 5784 5783 5782 5781 5780 5779 5778 5776 5775 5774 5772 5770 5769 5768 5766 5765 5764 5763 5761 5760 5758 5756 5755 5753 5751 5751 5748 5744 5742 5742 5742 5741 5739 5737 5735 5733 5733 5731 5729 5727 5726 5724 5723 5721
5782 5784 5786 5788 5789 5791 5792 5793 5794 5795 5795 5796 5797 5798 5799 5799 5800 5800 5800 5801 5800 5800 5800 5800 5800 5799 5799 5799 5798 5798 5797 5796 5796 5795 5794 5793 5792 5791 5789 5788 5787 5786 5785 5784 5783 5782 5780 5779 5778 5777 5776 5775 5773 5772 5770 5769 5767 5766 5764 5763 5762 5761 5759 5757 5755 5753 5752 5750 5748 5748 5745 5741 5739 5738 5737 5736 5734 5732 5729 5728 5727 5725 5724 5722 5720 5719 5717 5715
5782 5784 5786 5788 5790 5791 5792 5793 5794 5794 5795 5796 5797 5798 5799 5799 5800 5800 5800 5800 5800 5800 5800 5800 5800 5799 5799 5799 5798 5797 5797 5796 5795 5795 5794 5793 5791 5790 5789 5788 5787 5785 5784 5783 5782 5781 5779 5778 5777 5776 5775 5773 5772 5770 5769 5767 5765 5764 5762 5761 5759 5758 5756 5754 5752 5750 5749 5747 5745 5744 5742 5739 5736 5735 5733 5731 5730 5727 5725 5723 5722 5720 5718 5716 5715 5713 5711 5709
5782 5784 5786 5788 5789 5791 5792 5792 5793 5794 5795 5796 5797 5798 5799 5799 5800 5800 5800 5800 5800 5800 5800 5800 5800 5799 5799 5798 5797 5797 5796 5796 5795 5794 5793 5792 5791 5790 5788 5787 5786 5785 5784 5782 5781 5780 5778 5777 5775 5774 5773 5771 5770 5768 5766 5765 5763 5761 5760 5758 5756 5755 5753 5751 5749 5748 5746 5744 5742 5741 5739 5736 5733 5731 5729 5727 5726 5724 5721 5719 5718 5715 5713 5711 5710 5708 5706 5704
5783 5784 5786 5788 5789 5790 5791 5792 5793 5794 5795 5796 5797 5798 5798 5799 5800 5800 5800 5800 5800 5800 5800 5800 5799 5799 5799 5798 5797 5796 5796 5795 5794 5794 5793 5791 5790 5789 5788 5787 5785 5784 5783 5781 5780 5778 5777 5775 5774 5773 5771 5770 5768 5766 5764 5763 5761 5759 5757 5756 5754 5752 5750 5748 5747 5745 5743 5741 5740 5738 5736 5733 5730 5728 5725 5723 5722 5720 5718 5716 5714 5711 5709 5707 5705 5703 5701 5699
5783 5784 5786 5787 5789 5790 5791 5792 5793 5794 5795 5796 5797 5798 5799 5799 5800 5800 5800 5800 5800 5800 5800 5799 5799 5799 5798 5797 5797 5796 5796 5795 5794 5793 5792 5791 5790 5788 5787 5786 5784 5783 5782 5780 5779 5777 5776 5774 5773 5771 5769 5768 5766 5764 5763 5761 5759 5757 5755 5754 5752 5750 5748 5746 5744 5742 5740 5738 5737 5735 5733 5730 5728 5725 5722 5719 5717 5716 5714 5712 5710 5707 5705 5703 5701 5699 5696 5694
5783 5784 5786 5787 5789 5790 5791 5792 5794 5795 5796 5797 5798 5798 5799 5800 5800 5800 5801 5800 5800 5800 5800 5799 5799 5798 5798 5797 5797 5796 5796 5795 5794 5793 5792 5791 5789 5788 5786 5785 5784 5782 5781 5779 5778 5777 5775 5773 5772 5770 5768 5766 5764 5763 5761 5759 5757 5755 5753 5752 5750 5748 5746 5744 5741 5740 5737 5734 5733 5732 5730 5727 5724 5722 5719 5716 5713 5712 5710 5708 5705 5703 5701 5698 5696 5694 5691 5689
5783 5784 5786 5788 5789 5791 5792 5793 5794 5795 5796 5797 5798 5799 5799 5800 5800 5801 5800 5800 5800 5800 5799 5799 5799 5798 5798 5797 5797 5796 5796 5795 5794 5793 5791 5790 5789 5787 5786 5784 5783 5782 5780 5779 5777 5775 5774 5772 5770 5768 5766 5764 5762 5760 5759 5757 5754 5753 5751 5749 5747 5745 5743 5741 5738 5736 5734 5731 5730 5729 5727 5725 5721 5719 5716 5712 5710 5707 5705 5703 5701 5699 5696 5694 5691 5689 5686 5683
5783 5785 5787 5788 5790 5791 5792 5793 5794 5795 5797 5798 5799 5799 5800 5800 5801 5801 5800 5800 5800 5800 5799 5799 5799 5799 5798 5798 5797 5797 5796 5795 5794 5792 5791 5790 5789 5787 5785 5784 5782 5781 5779 5778 5776 5774 5772 5770 5768 5766 5764 5762 5760 5758 5756 5754 5752 5750 5748 5746 5744 5741 5739 5738 5734 5732 5730 5727 5726 5724 5723 5721 5717 5714 5711 5708 5705 5703 5700 5697 5695 5693 5691 5688 5685 5683 5680 5677
5783 5785 5787 5789 5791 5792 5793 5794 5795 5796 5797 5798 5799 5800 5800 5801 5801 5801 5800 5800 5800 5800 5800 5800 5799 5799 5799 5798 5797 5797 5796 5795 5794 5792 5791 5790 5788 5787 5785 5784 5782 5780 5778 5776 5774 5772 5770 5768 5766 5764 5761 5759 5757 5755 5753 5751 5749 5746 5745 5742 5740 5738 5735 5733 5730 5728 5725 5723 5721 5719 5718 5716 5712 5710 5706 5702 5699 5697 5694 5691 5689 5687 5684 5681 5679 5676 5673 5670
5784 5786 5788 5790 5791 5792 5793 5794 5795 5797 5798 5799 5799 5800 5800 5801 5801 5801 5801 5801 5800 5800 5800 5800 5800 5799 5799 5798 5798 5797 5796 5795 5794 5793 5791 5790 5788 5786 5784 5783 5781 5779 5777 5775 5773 5770 5768 5766 5763 5761 5759 5756 5754 5752 5750 5748 5746 5743 5741 5739 5736 5733 5730 5728 5725 5723 5720 5718 5715 5713 5713 5711 5706 5704 5701 5696 5693 5690 5688 5685 5682 5680 5677 5674 5672 5669 5666 5663
5785 5787 5789 5791 5792 5793 5794 5795 5796 5797 5798 5799 5800 5800 5801 5801 5801 5801 5801 5801 5801 5801 5801 5801 5800 5800 5799 5799 5798 5797 5796 5795 5794 5792 5791 5789 5787 5785 5783 5781 5779 5777 5775 5773 5771 5768 5766 5764 5761 5759 5756 5754 5751 5749 5747 5745 5742 5739 5737 5735 5733 5730 5726 5724 5721 5718 5715 5712 5710 5707 5707 5706 5701 5697 5695 5691 5687 5684 5682 5680 5676 5673 5670 5667 5665 5662 5659 5656
5786 5788 5790 5791 5792 5793 5795 5796 5797 5798 5799 5800 5800 5801 5801 5802 5802 5802 5802 5802 5802 5801 5801 5801 5801 5800 5799 5799 5799 5798 5796 5795 5793 5792 5790 5788 5786 5784 5782 5780 5778 5776 5773 5771 5769 5766 5764 5761 5759 5756 5754 5751 5748 5746 5744 5741 5739 5736 5733 5730 5729 5726 5722 5719 5716 5714 5711 5708 5706 5702 5701 5702 5697 5692 5690 5686 5682 5679 5676 5673 5670 5666 5663 5660 5657 5654 5652 5649
5787 5789 5790 5792 5793 5794 5795 5796 5797 5798 5799 5800 5801 5802 5802 5802 5803 5803 5802 5802 5802 5802 5802 5801 5801 5801 5800 5799 5799 5798 5796 5795 5793 5791 5789 5787 5785 5783 5781 5779 5776 5774 5771 5769 5766 5764 5761 5759 5756 5754 5751 5748 5745 5743 5741 5738 5736 5733 5730 5727 5724 5722 5719 5716 5713 5710 5708 5705 5702 5697 5694 5695 5692 5688 5685 5681 5677 5673 5670 5667 5663 5659 5655 5651 5648 5646 5643 5640
5788 5790 5791 5792 5794 5795 5796 5797 5798 5799 5800 5801 5802 5803 5803 5803 5803 5803 5803 5803 5802 5802 5802 5802 5802 5801 5801 5800 5799 5798 5796 5794 5792 5790 5788 5786 5784 5782 5779 5777 5775 5772 5770 5767 5764 5762 5759 5756 5754 5751 5748 5746 5743 5740 5737 5734 5731 5729 5726 5723 5720 5719 5717 5715 5711 5707 5704 5702 5699 5694 5689 5689 5686 5683 5680 5675 5671 5668 5664 5660 5656 5651 5648 5644 5640 5638 5635 5631
5789 5790 5792 5793 5794 5796 5797 5798 5799 5800 5801 5802 5803 5804 5804 5804 5804 5804 5803 5803 5803 5803 5803 5802 5802 5802 5801 5800 5799 5797 5795 5793 5792 5789 5787 5785 5783 5781 5778 5776 5774 5771 5768 5765 5762 5760 5757 5754 5752 5749 5746 5743 5739 5736 5733 5730 5728 5726 5724 5721 5718 5716 5713 5711 5708 5703 5701 5698 5696 5692 5686 5683 5680 5677 5674 5669 5664 5661 5657 5653 5649 5644 5640 5636 5632 5629 5625 5621
5790 5791 5793 5794 5795 5797 5798 5799 5800 5802 5803 5803 5804 5804 5804 5804 5804 5804 5804 5804 5804 5804 5803 5804 5803 5802 5801 5800 5798 5796 5795 5793 5791 5789 5786 5784 5782 5779 5777 5775 5772 5770 5767 5764 5761 5758 5756 5753 5750 5747 5744 5740 5737 5734 5731 5728 5726 5724 5721 5719 5716 5713 5709 5706 5703 5699 5697 5695 5692 5688 5684 5679 5674 5671 5669 5664 5658 5655 5651 5646 5642 5638 5633 5628 5624 5619 5614 5610
5791 5792 5794 5795 5796 5798 5799 5800 5802 5803 5804 5804 5804 5805 5805 5805 5805 5805 5805 5806 5805 5804 5804 5804 5803 5802 5801 5799 5798 5796 5794 5792 5790 5788 5786 5783 5781 5778 5776 5773 5770 5768 5765 5763 5760 5756 5753 5751 5748 5745 5742 5739 5736 5733 5730 5727 5724 5720 5718 5715 5712 5710 5707 5703 5699 5694 5692 5691 5688 5683 5679 5675 5668 5665 5664 5659 5654 5649 5643 5638 5634 5629 5624 5620 5615 5610 5604 5599
5792 5793 5795 5796 5798 5799 5800 5802 5803 5804 5804 5805 5805 5805 5805 5806 5806 5806 5806 5806 5805 5805 5805 5804 5803 5802 5801 5799 5798 5796 5794 5792 5789 5787 5784 5782 5780 5777 5775 5772 5769 5767 5764 5761 5758 5755 5752 5748 5745 5742 5740 5736 5733 5731 5727 5724 5721 5718 5715 5712 5709 5706 5704 5700 5695 5691 5686 5685 5683 5678 5674 5669 5661 5659 5658 5653 5648 5642 5635 5630 5624 5619 5615 5611 5607 5601 5596 5591
5793 5795 5796 5798 5799 5800 5802 5803 5803 5804 5805 5806 5806 5806 5807 5808 5808 5808 5807 5807 5806 5806 5806 5805 5804 5802 5801 5799 5797 5795 5793 5791 5788 5786 5784 5781 5778 5776 5773 5771 5768 5765 5762 5759 5756 5753 5750 5746 5743 5740 5737 5734 5731 5728 5724 5721 5718 5715 5712 5709 5706 5702 5701 5698 5691 5686 5682 5678 5677 5673 5669 5664 5655 5651 5650 5646 5641 5634 5627 5622 5616 5612 5607 5602 5598 5593 5588 5582
5794 5796 5798 5799 5800 5802 5803 5804 5804 5805 5806 5807 5807 5807 5808 5809 5809 5809 5808 5808 5808 5807 5806 5805 5804 5802 5800 5798 5796 5794 5792 5789 5787 5784 5782 5779 5777 5774 5771 5769 5766 5763 5760 5757 5754 5751 5748 5745 5742 5738 5735 5732 5729 5725 5722 5718 5715 5712 5709 5705 5702 5697 5695 5695 5690 5683 5677 5672 5670 5668 5665 5660 5650 5643 5641 5638 5634 5626 5620 5615 5610 5605 5600 5594 5588 5583 5579 5574
5796 5798 5799 5800 5802 5803 5804 5805 5806 5806 5807 5808 5809 5809 5810 5810 5810 5810 5809 5809 5808 5807 5806 5805 5803 5801 5799 5798 5796 5794 5791 5789 5786 5784 5781 5778 5776 5773 5770 5767 5764 5761 5758 5754 5751 5748 5745 5743 5740 5736 5733 5730 5727 5724 5720 5716 5712 5708 5705 5701 5698 5693 5688 5687 5685 5681 5674 5665 5661 5661 5662 5657 5645 5636 5632 5629 5624 5618 5613 5608 5603 5598 5592 5585 5580 5574 5570 5565
5798 5799 5800 5802 5803 5804 5805 5806 5807 5808 5809 5810 5810 5811 5811 5811 5811 5810 5810 5809 5808 5807 5806 5804 5803 5801 5799 5797 5795 5793 5791 5788 5786 5783 5780 5777 5774 5772 5768 5765 5762 5759 5756 5753 5750 5747 5743 5740 5737 5733 5730 5727 5724 5721 5718 5714 5710 5705 5701 5697 5693 5689 5684 5679 5676 5675 5673 5664 5654 5651 5653 5653 5642 5628 5622 5619 5615 5610 5605 5600 5595 5589 5583 5577 5570 5565 5560 5555
5799 5801 5802 5803 5804 5805 5806 5808 5809 5810 5811 5811 5812 5812 5812 5812 5811 5811 5810 5809 5808 5807 5806 5804 5802 5800 5798 5797 5794 5792 5790 5787 5785 5782 5779 5776 5773 5770 5767 5764 5761 5758 5755 5752 5748 5745 5741 5737 5734 5731 5727 5724 5720 5717 5714 5710 5707 5702 5698 5693 5688 5684 5681 5676 5671 5666 5665 5660 5650 5641 5640 5644 5640 5625 5614 5611 5608 5602 5597 5592 5586 5580 5574 5569 5563 5558 5552 5546
5801 5802 5804 5805 5806 5807 5808 5809 5811 5811 5812 5813 5813 5813 5813 5812 5812 5811 5810 5809 5808 5807 5805 5804 5802 5800 5798 5796 5794 5792 5789 5786 5784 5781 5778 5775 5772 5769 5766 5763 5759 5756 5753 5750 5746 5742 5739 5735 5732 5728 5724 5720 5716 5712 5710 5706 5703 5698 5693 5689 5684 5680 5675 5671 5666 5660 5656 5652 5644 5634 5629 5631 5633 5623 5611 5605 5600 5594 5590 5584 5578 5572 5567 5562 5556 5551 5545 5537
5803 5804 5806 5807 5808 5809 5810 5811 5812 5813 5813 5814 5814 5814 5813 5813 5812 5811 5810 5810 5808 5807 5805 5803 5801 5799 5797 5795 5793 5791 5788 5786 5783 5780 5777 5774 5771 5768 5765 5761 5758 5755 5751 5747 5744 5740 5737 5733 5729 5725 5721 5717 5713 5709 5706 5703 5698 5693 5688 5684 5680 5676 5671 5666 5662 5657 5651 5647 5640 5631 5623 5621 5624 5618 5607 5601 5594 5587 5583 5577 5571 5566 5559 5554 5548 5541 5533 5525
5805 5806 5807 5809 5810 5811 5812 5813 5813 5814 5814 5814 5814 5814 5814 5813 5812 5811 5811 5809 5808 5806 5805 5803 5801 5798 5797 5795 5793 5790 5788 5785 5782 5779 5776 5773 5769 5766 5763 5760 5757 5753 5749 5745 5742 5738 5734 5730 5726 5723 5719 5715 5711 5706 5702 5698 5694 5689 5684 5680 5675 5670 5666 5662 5659 5654 5647 5642 5637 5629 5619 5613 5616 5612 5600 5593 5586 5579 5575 5571 5565 5558 5551 5545 5538 5529 5521 5513
5807 5808 5809 5811 5812 5813 5814 5814 5815 5815 5815 5815 5815 5815 5814 5813 5812 5812 5811 5809 5807 5806 5804 5802 5800 5798 5796 5794 5792 5790 5787 5784 5781 5778 5775 5772 5769 5766 5762 5759 5755 5751 5747 5743 5740 5736 5732 5728 5724 5721 5717 5713 5708 5702 5697 5694 5690 5686 5682 5678 5673 5666 5662 5657 5653 5649 5644 5637 5630 5624 5616 5606 5605 5605 5595 5586 5579 5571 5566 5561 5556 5550 5543 5535 5527 5518 5511 5504
5809 5810 5811 5813 5813 5814 5815 5815 5816 5816 5816 5816 5815 5815 5814 5814 5813 5812 5810 5809 5807 5805 5803 5801 5800 5798 5796 5794 5791 5789 5786 5783 5780 5776 5773 5770 5767 5764 5760 5757 5753 5749 5746 5742 5738 5734 5730 5727 5723 5719 5714 5710 5705 5699 5693 5689 5685 5681 5677 5674 5671 5666 5659 5653 5647 5643 5640 5634 5625 5618 5612 5603 5596 5594 5590 5583 5576 5567 5559 5553 5548 5543 5536 5528 5519 5511 5502 5492
5811 5812 5813 5814 5815 5816 5817 5817 5817 5817 5817 5816 5816 5815 5815 5814 5813 5812 5810 5809 5807 5805 5803 5801 5800 5798 5796 5794 5792 5789 5786 5783 5780 5776 5773 5770 5766 5763 5760 5757 5753 5750 5746 5742 5737 5733 5728 5724 5720 5716 5711 5706 5702 5697 5690 5685 5680 5676 5671 5665 5663 5661 5656 5650 5645 5640 5636 5631 5623 5615 5608 5601 5593 5585 5581 5577 5570 5562 5555 5547 5540 5534 5527 5520 5511 5502 5493 5482
5813 5814 5815 5816 5817 5818 5818 5818 5818 5818 5817 5817 5816 5816 5815 5814 5813 5812 5810 5809 5807 5805 5803 5802 5800 5798 5796 5794 5791 5788 5785 5782 5779 5776 5773 5770 5767 5764 5761 5757 5753 5749 5746 5742 5737 5732 5726 5722 5717 5713 5708 5703 5698 5694 5689 5682 5676 5670 5666 5659 5653 5649 5647 5642 5636 5633 5630 5625 5618 5610 5601 5596 5590 5581 5574 5569 5561 5553 5546 5538 5530 5523 5516 5509 5500 5490 5481 5472
5815 5816 5817 5818 5819 5819 5819 5819 5819 5818 5818 5817 5817 5817 5816 5815 5813 5812 5810 5809 5807 5805 5804 5802 5800 5798 5796 5793 5790 5788 5785 5781 5778 5775 5772 5769 5765 5761 5757 5753 5749 5745 5742 5738 5734 5730 5725 5720 5715 5709 5704 5699 5693 5688 5683 5677 5671 5664 5658 5650 5642 5636 5631 5627 5621 5617 5616 5614 5610 5603 5594 5588 5584 5575 5567 5561 5552 5542 5535 5528 5521 5513 5505 5497 5489 5479 5470 5461
5817 5818 5819 5819 5820 5820 5820 5820 5819 5819 5819 5818 5818 5817 5816 5815 5813 5812 5810 5809 5808 5806 5804 5803 5800 5798 5795 5793 5790 5787 5784 5781 5778 5774 5770 5767 5763 5759 5756 5751 5747 5743 5739 5735 5731 5727 5722 5716 5711 5705 5700 5694 5688 5682 5676 5670 5664 5658 5651 5644 5637 5630 5623 5618 5612 5606 5601 5599 5599 5595 5586 5579 5575 5567 5558 5552 5545 5535 5526 5519 5512 5505 5497 5489 5481 5471 5461 5451
5819 5820 5821 5821 5821 5821 5821 5820 5820 5820 5819 5819 5819 5818 5816 5815 5814 5812 5811 5810 5808 5807 5805 5803 5800 5797 5794 5792 5789 5786 5783 5780 5777 5773 5769 5766 5762 5759 5755 5750 5746 5741 5737 5733 5729 5724 5719 5712 5706 5701 5695 5689 5683 5677 5672 5666 5659 5653 5647 5641 5634 5628 5622 5615 5609 5602 5594 5588 5586 5586 5581 5574 5570 5563 5553 5545 5539 5530 5520 5512 5506 5497 5489 5480 5471 5461 5449 5438
5821 5821 5822 5822 5822 5822 5822 5821 5821 5820 5820 5820 5819 5817 5816 5816 5814 5813 5812 5810 5809 5807 5805 5802 5800 5797 5794 5791 5788 5785 5782 5779 5776 5772 5768 5765 5761 5756 5752 5748 5744 5740 5735 5731 5726 5722 5717 5711 5704 5698 5692 5686 5679 5673 5667 5662 5656 5649 5643 5638 5631 5624 5617 5610 5605 5600 5593 5583 5578 5576 5571 5566 5562 5556 5548 5540 5531 5524 5514 5504 5496 5487 5477 5468 5458 5447 5435 5424
5822 5822 5823 5823 5823 5823 5823 5822 5821 5821 5821 5821 5819 5818 5817 5816 5815 5813 5812 5811 5809 5807 5805 5802 5800 5797 5794 5791 5788 5785 5781 5778 5774 5771 5767 5763 5759 5755 5751 5746 5742 5737 5732 5727 5723 5718 5714 5709 5703 5696 5690 5683 5676 5670 5663 5656 5651 5645 5639 5633 5627 5620 5613 5605 5597 5593 5586 5577 5571 5569 5561 5554 5548 5541 5535 5529 5521 5513 5504 5492 5483 5475 5465 5455 5445 5434 5423 5412
5823 5823 5824 5824 5824 5824 5823 5822 5822 5823 5822 5821 5819 5818 5818 5816 5815 5814 5812 5811 5809 5806 5804 5802 5799 5796 5793 5790 5787 5784 5781 5777 5773 5770 5766 5762 5758 5753 5749 5744 5739 5735 5729 5724 5719 5714 5710 5706 5700 5693 5687 5680 5674 5667 5660 5654 5647 5641 5634 5627 5620 5615 5610 5603 5593 5584 5577 5566 5559 5558 5554 5546 5537 5528 5521 5515 5508 5499 5491 5481 5472 5464 5454 5443 5433 5423 5413 5403
5825 5824 5824 5825 5825 5825 5824 5823 5824 5824 5822 5820 5819 5819 5818 5817 5815 5814 5812 5810 5808 5806 5804 5801 5799 5796 5793 5790 5787 5783 5780 5776 5772 5768 5764 5760 5756 5752 5747 5742 5737 5732 5727 5721 5716 5711 5705 5701 5696 5690 5682 5676 5670 5664 5657 5652 5646 5638 5631 5625 5617 5609 5602 5598 5591 5582 5573 5560 5548 5543 5542 5539 5530 5521 5513 5505 5496 5489 5481 5470 5461 5452 5444 5433 5423 5412 5402 5394
5826 5825 5825 5826 5826 5825 5824 5825 5825 5823 5821 5820 5820 5820 5818 5817 5816 5814 5812 5810 5808 5806 5803 5801 5798 5795 5792 5789 5786 5782 5779 5775 5771 5767 5763 5759 5754 5750 5745 5740 5735 5730 5724 5719 5713 5708 5702 5697 5693 5688 5681 5674 5666 5658 5651 5647 5642 5634 5627 5620 5612 5604 5597 5591 5587 5581 5571 5558 5544 5532 5530 5532 5526 5515 5506 5497 5489 5483 5475 5463 5452 5443 5434 5425 5415 5404 5394 5385
5827 5826 5826 5827 5826 5826 5826 5826 5824 5823 5822 5822 5821 5820 5819 5817 5816 5814 5812 5810 5808 5806 5803 5800 5797 5794 5791 5788 5785 5781 5778 5774 5770 5766 5762 5757 5753 5748 5743 5738 5733 5728 5722 5717 5711 5706 5701 5695 5689 5684 5678 5672 5665 5656 5646 5638 5632 5626 5619 5613 5606 5600 5592 5583 5579 5575 5567 5557 5546 5531 5522 5521 5517 5507 5500 5491 5483 5477 5469 5457 5445 5435 5425 5416 5408 5398 5387 5379
5827 5827 5828 5828 5827 5828 5827 5825 5824 5824 5823 5822 5821 5820 5819 5817 5815 5814 5812 5810 5808 5805 5803 5800 5797 5794 5791 5787 5784 5781 5777 5773 5769 5765 5760 5756 5751 5746 5742 5737 5732 5726 5721 5715 5709 5704 5699 5694 5688 5681 5674 5667 5661 5653 5644 5636 5629 5622 5616 5610 5603 5596 5588 5579 5571 5565 5559 5553 5547 5534 5522 5518 5513 5503 5495 5487 5478 5471 5462 5450 5438 5427 5417 5408 5401 5392 5382 5374
5829 5829 5829 5829 5829 5828 5826 5825 5825 5825 5824 5823 5822 5821 5819 5817 5815 5814 5812 5810 5808 5805 5802 5799 5796 5793 5790 5787 5783 5779 5776 5772 5768 5764 5759 5755 5750 5745 5740 5735 5730 5724 5719 5713 5707 5700 5695 5689 5685 5680 5676 5671 5665 5657 5649 5640 5632 5623 5615 5608 5601 5594 5586 5579 5571 5560 5551 5545 5539 5528 5518 5516 5511 5501 5490 5480 5471 5464 5455 5443 5431 5419 5409 5400 5393 5385 5376 5367
5830 5830 5830 5830 5829 5828 5826 5826 5826 5825 5824 5824 5822 5820 5819 5817 5815 5814 5812 5810 5807 5805 5802 5799 5796 5793 5789 5786 5782 5778 5774 5771 5767 5763 5758 5754 5749 5744 5739 5733 5727 5722 5716 5710 5704 5697 5691 5684 5677 5671 5666 5663 5661 5654 5647 5639 5630 5621 5612 5604 5597 5591 5583 5575 5568 5559 5548 5540 5535 5523 5511 5508 5505 5494 5482 5473 5463 5455 5447 5436 5424 5411 5400 5391 5385 5378 5369 5360
5831 5831 5831 5830 5829 5828 5827 5827 5827 5826 5825 5824 5822 5820 5818 5817 5815 5814 5812 5810 5807 5805 5802 5799 5795 5792 5789 5785 5782 5778 5773 5769 5766 5762 5757 5752 5747 5742 5736 5731 5725 5719 5714 5707 5701 5694 5687 5680 5673 5664 5654 5646 5640 5635 5629 5624 5620 5615 5609 5601 5593 5586 5578 5568 5562 5555 5544 5534 5531 5521 5504 5498 5497 5486 5474 5466 5456 5445 5437 5427 5415 5402 5392 5384 5378 5370 5362 5353
5832 5832 5832 5831 5830 5829 5828 5828 5827 5826 5825 5823 5822 5820 5818 5817 5815 5813 5811 5809 5807 5804 5801 5798 5795 5791 5788 5784 5781 5777 5773 5769 5764 5760 5755 5750 5745 5740 5734 5729 5723 5717 5711 5705 5698 5691 5685 5678 5670 5663 5654 5644 5637 5632 5624 5617 5612 5608 5604 5597 5590 5581 5572 5564 5558 5551 5540 5528 5523 5519 5503 5489 5485 5476 5462 5454 5446 5436 5426 5415 5404 5394 5385 5376 5370 5362 5355 5348
5833 5833 5832 5831 5831 5830 5829 5829 5828 5826 5825 5823 5822 5820 5818 5817 5815 5813 5811 5809 5806 5804 5801 5798 5794 5791 5787 5784 5780 5776 5772 5768 5763 5758 5754 5749 5744 5738 5733 5727 5721 5715 5708 5702 5696 5689 5683 5676 5669 5662 5655 5646 5638 5633 5626 5617 5610 5604 5597 5591 5584 5576 5567 5560 5553 5546 5536 5522 5514 5513 5503 5487 5477 5467 5453 5443 5435 5425 5416 5406 5396 5386 5376 5368 5361 5355 5349 5342
5834 5834 5833 5832 5832 5831 5830 5829 5828 5826 5825 5823 5821 5819 5818 5816 5815 5813 5811 5808 5806 5803 5800 5797 5794 5790 5787 5783 5779 5775 5771 5767 5762 5757 5752 5747 5742 5737 5731 5725 5719 5713 5706 5700 5694 5688 5681 5674 5667 5662 5656 5646 5638 5632 5625 5618 5610 5602 5595 5588 5580 5571 5563 5555 5547 5539 5531 5521 5509 5502 5495 5484 5472 5461 5449 5437 5426 5416 5408 5400 5391 5380 5369 5361 5355 5348 5341 5334
5835 5834 5834 5833 5832 5831 5830 5829 5828 5826 5824 5823 5821 5819 5818 5816 5814 5812 5811 5808 5806 5803 5799 5796 5793 5790 5786 5782 5778 5774 5770 5766 5761 5756 5751 5746 5741 5735 5729 5723 5717 5711 5704 5698 5692 5685 5678 5672 5664 5659 5654 5646 5638 5631 5623 5615 5608 5602 5594 5586 5577 5568 5559 5552 5545 5535 5526 5517 5507 5495 5488 5481 5470 5457 5445 5433 5421 5412 5404 5395 5386 5376 5365 5356 5349 5342 5334 5327
5835 5835 5834 5833 5832 5831 5830 5829 5827 5826 5824 5822 5821 5819 5818 5816 5814 5812 5810 5808 5805 5802 5799 5796 5792 5789 5785 5781 5777 5773 5769 5764 5759 5754 5749 5744 5739 5733 5727 5721 5715 5708 5702 5695 5689 5683 5676 5669 5662 5655 5651 5645 5637 5631 5623 5613 5605 5598 5591 5583 5574 5566 5558 5550 5543 5533 5517 5507 5500 5491 5481 5474 5465 5452 5439 5427 5416 5407 5399 5389 5379 5369 5359 5349 5341 5334 5328 5321
5836 5835 5834 5833 5832 5831 5830 5829 5827 5825 5824 5822 5821 5819 5817 5816 5814 5812 5810 5807 5804 5802 5798 5795 5792 5788 5785 5781 5776 5772 5768 5763 5758 5753 5747 5742 5736 5730 5725 5719 5712 5706 5699 5692 5686 5680 5673 5666 5660 5652 5647 5640 5631 5624 5618 5611 5604 5597 5588 5580 5572 5563 5553 5542 5534 5524 5509 5496 5489 5482 5472 5462 5453 5442 5431 5422 5412 5401 5391 5380 5369 5359 5350 5341 5333 5326 5320 5315
5836 5835 5834 5834 5833 5831 5830 5829 5827 5825 5824 5822 5820 5819 5817 5815 5813 5811 5809 5807 5804 5801 5798 5795 5791 5788 5784 5780 5775 5771 5767 5762 5757 5752 5746 5740 5734 5728 5723 5717 5710 5703 5697 5690 5682 5676 5669 5662 5655 5647 5641 5636 5629 5620 5611 5604 5599 5593 5583 5573 5564 5556 5546 5534 5524 5518 5508 5495 5483 5474 5465 5455 5444 5434 5423 5414 5405 5394 5384 5372 5359 5349 5341 5334 5327 5320 5314 5309